Theta_e
317 316 316 316 315 315 314 313 312 311 310 310 309 309 308 307 306 306 306 307 307 307 308 308 308 307 307 307 307 307 307 307 307 307 307 306 306 306 305 305 305 305 305 304 303 302 301 301 301 301 300 291
315 315 314 314 313 312 312 311 310 309 308 307 307 306 305 305 304 304 304 304 304 304 304 305 306 306 306 306 306 306 306 306 306 305 305 304 304 304 303 303 304 303 304 303 302 301 300 299 299 299 298 289
311 313 312 312 311 311 310 309 308 307 306 305 304 304 303 303 302 302 302 302 302 302 302 302 303 305 305 305 304 304 304 305 305 304 304 304 303 302 301 301 301 302 302 302 301 300 298 297 297 297 293 288
306 310 310 310 309 309 308 307 306 305 304 303 302 301 300 299 298 299 298 300 297 299 299 299 299 302 303 304 303 302 302 303 303 303 303 302 301 300 299 299 298 299 300 300 299 298 296 295 295 287 286 287
303 306 308 307 307 307 305 304 303 303 303 302 301 301 299 298 291 290 290 293 292 297 294 296 298 299 300 301 301 300 300 301 302 302 301 300 299 298 296 295 295 295 297 298 296 295 294 294 285 285 285 286
302 301 301 299 299 299 301 302 302 297 294 299 293 301 294 290 291 288 288 290 296 292 293 293 296 297 298 298 299 298 298 298 299 300 299 298 297 296 294 293 285 287 293 295 294 293 292 285 283 284 285 285
298 295 294 295 296 298 300 299 296 294 295 290 290 290 291 291 289 288 288 289 292 293 296 294 295 295 295 296 296 295 295 295 296 296 297 296 294 294 292 285 283 282 282 283 292 291 285 282 282 283 283 284
294 294 293 293 294 294 294 293 293 291 291 290 290 290 290 289 290 289 287 296 296 296 292 292 295 294 293 292 293 292 290 292 293 292 293 293 291 291 288 282 282 282 281 282 282 282 282 281 281 282 283 281
294 293 293 293 293 293 292 291 291 291 290 290 289 289 290 288 290 288 288 288 287 286 286 284 285 285 285 284 284 290 281 282 284 284 282 282 285 281 283 282 281 281 282 282 282 281 281 281 281 281 282 281
295 294 292 292 292 292 291 291 290 290 290 290 289 288 289 291 288 288 288 286 286 285 285 284 283 283 283 281 282 285 281 281 281 280 280 281 281 280 280 280 280 280 282 280 280 280 280 280 279 279 279 279
295 293 292 292 292 291 290 290 290 289 288 289 288 288 290 289 286 287 286 286 285 284 284 283 282 282 282 280 281 283 280 279 280 280 280 279 279 279 280 280 280 280 280 279 280 280 279 279 278 278 278 278
294 292 292 292 295 292 293 291 289 288 288 289 287 288 289 290 286 285 284 285 284 283 284 283 282 281 281 280 280 281 281 279 279 279 279 279 279 279 279 279 279 279 279 279 279 280 279 279 278 277 277 277
293 292 292 293 291 290 296 289 288 288 289 288 288 288 288 289 285 284 285 283 284 283 283 282 282 280 280 280 280 280 279 279 278 278 278 279 278 278 278 278 278 280 279 279 279 278 279 278 278 277 278 277
292 292 291 291 290 290 294 288 288 288 287 286 286 286 286 288 284 284 283 283 282 282 282 281 281 281 280 279 279 278 278 280 278 277 277 277 278 278 277 277 278 279 278 278 278 279 278 278 278 277 277 277
292 291 290 291 289 291 289 288 289 288 286 286 286 286 285 285 287 284 283 282 282 282 281 281 280 279 279 278 278 278 278 279 280 277 277 278 278 277 277 277 278 279 278 277 278 278 277 278 278 278 278 277
291 291 291 290 289 289 288 289 287 287 286 287 285 286 284 284 284 286 282 282 282 282 280 279 279 278 278 277 278 278 278 278 279 279 278 279 279 277 277 277 277 279 276 276 276 276 276 277 277 277 277 277
291 291 291 289 288 289 289 288 287 286 286 285 285 285 285 284 284 285 283 282 284 285 279 279 279 279 279 278 278 278 280 279 277 277 276 277 278 277 276 277 277 279 276 275 276 275 276 277 276 277 277 278
290 290 290 289 288 289 288 287 287 286 285 285 285 285 284 283 284 283 282 282 281 280 279 280 279 278 277 277 278 278 277 275 276 275 275 278 275 280 276 275 276 276 275 275 275 275 276 276 276 276 277 277
290 290 290 288 288 288 288 287 286 286 284 284 284 284 283 283 284 282 282 282 281 280 279 279 278 277 276 278 278 276 277 275 275 276 275 277 274 275 275 275 277 277 275 275 275 275 276 275 276 277 277 277
289 289 289 288 289 287 287 287 286 285 284 284 283 284 283 283 283 282 282 282 281 279 279 278 278 277 277 278 278 276 277 276 276 275 275 277 274 274 274 277 274 275 274 275 275 275 275 275 277 276 276 277
288 288 288 288 288 287 287 286 285 284 284 283 283 283 282 282 283 281 282 282 281 279 279 278 278 277 277 278 276 276 275 276 277 276 277 275 278 273 274 274 274 274 275 275 275 275 275 275 276 275 276 276
288 288 288 287 286 288 287 286 285 284 283 283 283 282 282 282 283 282 281 281 281 279 279 278 277 277 277 277 276 276 276 275 276 275 275 274 275 274 274 273 273 274 274 276 276 275 274 274 274 275 275 276
287 287 287 286 286 287 286 285 284 284 283 282 282 282 282 282 282 282 280 281 280 279 279 277 277 277 277 277 276 276 275 275 276 276 275 274 274 276 274 273 274 274 274 275 275 274 274 274 274 275 275 278
285 285 285 285 283 284 286 285 284 283 283 282 281 282 282 282 281 281 281 280 280 279 279 277 277 276 277 276 276 275 275 275 275 275 274 274 274 273 275 277 275 274 274 274 273 274 275 274 274 274 276 276
285 284 283 284 284 284 284 285 284 283 282 282 282 282 282 282 281 281 281 281 279 278 280 277 276 276 276 276 276 275 275 275 275 275 275 275 277 274 273 273 274 274 273 272 271 272 272 272 273 277 277 276
286 286 285 285 284 284 284 284 284 283 281 282 282 282 282 282 281 280 280 281 279 279 278 277 276 276 276 276 276 276 276 275 278 276 275 274 272 275 273 272 273 274 272 270 269 269 269 271 272 274 274 275
286 286 286 285 284 284 282 284 285 284 283 283 282 281 281 282 281 280 280 280 280 279 278 277 277 276 276 276 276 276 275 275 275 275 274 273 272 272 273 273 274 273 273 269 271 270 270 268 269 273 272 272
287 287 286 285 283 283 283 283 284 283 282 282 281 281 281 281 281 280 280 280 280 279 278 277 277 277 276 276 276 276 275 274 274 274 273 273 273 272 271 272 272 274 273 270 271 266 268 267 268 265 269 269
286 285 283 283 281 281 281 281 281 280 280 281 281 281 280 281 281 280 280 280 279 280 278 278 277 277 276 276 276 276 275 274 274 274 274 273 273 272 271 271 270 274 273 272 273 270 269 265 265 266 268 268
286 285 284 282 281 280 280 280 279 279 280 280 280 281 281 280 281 280 279 279 279 279 279 277 277 277 276 276 276 276 275 275 274 273 273 273 273 273 271 272 271 271 274 273 274 272 271 271 268 267 268 267
286 284 284 283 283 283 282 281 281 282 282 281 281 281 280 280 280 280 279 279 279 279 279 278 277 277 276 276 275 276 275 274 274 274 274 274 273 272 273 271 270 271 271 272 272 273 272 273 272 270 268 266
Wind_Speed
18 18 19 19 20 19 19 18 17 17 16 16 16 16 15 15 14 14 13 13 13 13 13 13 13 13 13 13 13 14 13 13 14 14 14 14 14 13 13 14 14 15 16 15 15 15 16 16 15 15 12 6
17 17 19 19 19 19 19 18 17 17 16 16 16 15 15 14 13 13 13 13 13 12 12 12 12 12 12 12 13 13 13 13 13 14 13 14 14 14 14 14 14 14 15 15 15 15 16 15 16 15 12 6
11 17 18 19 19 19 19 18 17 16 16 15 15 15 14 13 13 12 12 12 12 12 12 10 11 12 12 11 12 12 13 12 13 13 13 14 14 14 14 14 14 14 15 15 15 16 15 15 15 15 8 6
7 13 17 17 18 18 18 17 16 15 15 14 14 13 13 12 8 8 7 11 8 11 11 10 8 11 12 11 11 12 12 12 12 13 13 13 14 14 14 14 14 14 14 14 15 15 15 15 14 8 6 6
6 9 15 14 17 18 17 16 16 15 14 12 11 10 11 10 6 4 4 4 4 8 4 8 8 9 11 12 10 11 11 12 12 13 13 13 14 14 15 14 14 14 14 14 15 15 15 14 7 6 6 7
5 5 7 7 8 8 10 11 11 8 5 6 4 9 8 6 5 4 3 3 5 2 3 3 7 8 10 11 11 12 11 11 12 12 13 13 13 14 14 13 6 6 10 13 14 14 14 7 6 6 6 6
5 6 5 6 7 7 8 7 6 5 5 4 4 6 6 6 5 4 4 3 3 3 4 2 6 9 10 10 11 11 11 11 11 12 12 13 12 12 11 6 5 5 5 5 10 9 6 6 6 6 6 6
6 5 5 5 6 7 6 6 5 5 4 4 5 5 5 6 5 4 3 5 5 4 1 1 8 10 10 10 10 12 7 9 10 12 11 11 11 7 4 4 5 5 4 4 4 5 7 6 6 5 4 4
6 6 5 5 6 6 6 6 6 5 4 4 6 5 5 4 4 4 3 3 3 3 3 3 5 4 4 4 4 7 4 4 4 5 5 5 5 4 4 4 5 4 5 3 4 5 5 5 5 5 5 4
8 7 7 6 6 6 6 6 6 5 5 5 5 5 4 4 5 5 5 4 4 4 5 4 4 4 5 4 4 3 5 4 4 4 4 4 4 5 4 4 4 4 3 3 3 3 4 4 4 4 5 5
8 7 7 7 7 7 7 6 6 6 5 5 4 5 4 5 5 5 6 4 4 4 5 3 3 4 4 4 4 3 4 4 3 4 4 5 4 4 4 3 4 4 4 3 3 3 3 3 3 3 4 4
8 7 7 7 7 7 7 7 7 6 6 5 5 4 4 4 6 7 5 5 5 4 4 3 3 4 4 4 4 4 4 4 4 4 4 4 4 4 4 3 3 4 4 4 2 3 3 3 3 3 3 3
8 7 7 7 7 7 7 7 7 7 6 6 5 4 4 4 6 6 6 5 5 5 4 4 4 4 4 5 4 4 3 3 3 3 3 3 3 3 3 3 3 3 4 4 3 3 4 4 4 4 4 3
7 7 8 7 8 8 7 7 7 6 6 6 6 5 4 4 5 6 7 6 5 6 4 4 4 5 5 5 4 4 3 1 2 2 3 3 3 3 3 3 3 3 4 4 4 4 4 4 5 4 4 4
7 8 8 7 7 7 7 7 7 7 7 6 6 6 4 4 4 6 6 6 5 5 5 5 5 5 4 5 4 4 2 1 0 2 2 1 1 2 3 3 2 3 4 4 4 4 5 5 5 5 5 4
8 8 8 7 7 7 7 7 7 7 7 7 6 6 5 4 5 5 5 6 5 6 6 5 6 5 5 5 4 3 1 0 0 2 2 3 1 2 2 3 3 3 3 3 3 3 4 4 5 6 5 4
8 8 7 7 7 7 7 7 7 7 7 7 7 6 6 5 5 5 7 6 5 5 6 5 5 5 4 4 4 3 1 1 2 3 3 3 3 3 3 4 3 3 3 3 3 3 4 5 5 5 5 5
8 8 7 7 7 7 7 7 7 7 7 7 7 7 6 6 5 6 6 6 5 6 6 6 6 6 5 4 4 3 2 2 2 4 3 1 3 2 3 2 2 3 3 3 2 3 3 4 4 5 5 5
9 8 8 8 8 7 8 7 7 7 7 7 7 7 7 7 6 6 6 6 7 6 6 6 6 6 6 5 4 4 3 3 3 4 2 1 2 1 2 2 1 1 1 2 3 3 3 5 5 4 4 4
9 9 9 8 8 7 7 7 7 7 8 7 7 7 7 7 6 6 7 7 7 7 7 7 7 6 6 5 4 5 4 3 5 3 3 1 3 1 0 1 2 1 2 2 3 3 4 4 3 5 4 5
7 8 9 8 8 9 8 8 7 7 7 7 8 7 7 7 7 6 7 8 7 7 7 7 6 6 7 5 5 5 5 4 5 4 3 0 1 3 1 0 1 2 2 2 3 4 4 4 3 4 5 4
9 9 9 8 7 8 9 8 7 7 7 8 8 8 8 8 8 7 7 8 7 7 6 7 7 6 7 6 6 6 5 5 5 4 4 3 1 3 2 1 1 1 2 1 3 4 5 6 4 5 4 5
7 8 7 7 7 8 8 7 7 7 8 8 8 9 9 9 8 8 8 8 7 7 7 7 7 7 7 6 6 6 5 6 5 4 5 4 3 2 3 4 3 4 2 0 3 4 6 5 5 5 4 5
7 7 8 9 6 7 9 8 7 7 9 8 9 9 9 9 9 9 9 9 8 8 7 7 8 8 7 7 6 7 7 7 6 7 6 6 5 4 3 3 4 3 2 0 2 4 5 5 5 5 4 4
10 10 8 8 11 12 10 10 8 8 8 9 9 10 10 10 10 10 9 9 9 9 8 8 7 8 7 7 7 8 8 8 8 7 7 6 5 6 5 5 3 4 4 1 2 2 3 6 3 3 3 4
11 11 13 13 12 10 9 10 10 10 8 10 9 10 11 11 11 11 11 10 10 9 10 9 8 9 9 9 8 7 6 6 7 7 7 6 5 5 6 5 6 6 5 0 2 1 5 4 5 3 2 2
13 12 10 11 8 10 7 7 9 9 9 8 10 10 12 12 11 12 11 11 11 10 10 10 10 10 9 9 8 8 8 7 9 8 9 8 8 7 4 3 3 6 5 5 4 2 2 3 5 4 4 3
13 11 9 6 5 7 9 8 7 7 7 8 9 12 11 11 12 13 12 12 12 10 11 11 11 10 9 10 9 10 10 9 10 8 8 8 7 6 6 5 5 5 5 4 6 1 2 2 3 3 1 2
10 7 6 5 3 4 4 1 6 7 8 11 11 10 11 15 12 12 12 12 13 12 12 11 11 11 11 10 10 9 9 10 11 10 9 10 8 9 8 8 4 4 5 6 5 7 3 1 1 4 2 2
11 11 11 9 9 9 10 11 10 14 17 14 14 17 11 9 13 13 12 12 13 12 11 12 12 11 11 11 10 10 10 9 8 9 10 10 9 9 6 8 6 6 4 6 5 5 3 4 5 5 4 3
10 11 11 14 16 15 15 15 14 13 10 11 11 8 10 11 10 12 13 13 13 13 13 12 12 12 12 11 11 10 10 10 11 10 10 9 9 9 7 5 8 9 8 3 4 5 5 1 2 5 6 5
Wind_Direction
113 114 114 112 111 110 110 109 108 106 104 102 99 95 92 88 87 84 81 81 79 73 68 65 66 63 60 57 55 53 50 49 48 46 47 46 47 48 52 46 44 43 42 43 42 46 41 35 34 31 29 23
115 114 114 114 113 113 112 112 111 109 107 104 101 98 94 90 86 85 81 79 76 73 63 54 58 60 58 54 51 48 48 48 47 45 48 49 48 51 50 47 42 43 42 44 45 45 40 33 27 24 24 24
114 116 115 116 116 114 114 114 113 111 109 106 104 101 97 94 90 84 80 76 75 69 64 57 46 55 55 55 53 47 44 48 49 46 48 53 50 51 49 46 42 41 43 45 45 42 40 32 22 17 17 23
112 118 118 118 117 117 115 115 115 114 113 113 110 108 104 96 78 75 83 83 70 69 64 57 53 51 50 54 57 50 42 43 49 47 48 54 52 50 50 46 42 41 43 46 44 40 35 30 22 13 11 17
113 121 121 118 119 118 118 118 119 119 117 117 118 114 111 101 93 88 74 91 84 80 76 69 64 57 50 48 58 51 45 40 47 47 49 53 52 52 49 46 36 37 41 45 44 39 33 24 18 12 15 19
118 116 114 117 117 117 118 118 116 113 122 129 136 116 112 113 115 108 105 101 114 103 78 74 76 59 53 48 51 50 44 42 45 46 48 50 51 51 50 44 30 23 26 36 44 39 31 22 15 11 16 20
134 129 126 126 125 119 115 123 124 133 133 141 124 118 120 126 127 133 129 130 138 148 141 127 72 60 52 48 52 49 43 44 47 44 45 48 48 50 47 39 33 27 27 22 37 37 31 22 13 10 16 17
147 144 143 144 132 124 127 125 127 127 127 116 114 118 121 125 140 137 150 145 142 134 85 20 54 67 62 52 53 56 37 26 42 48 38 40 44 30 30 42 33 33 16 29 34 37 32 19 10 11 7 16
156 152 148 147 138 133 133 132 129 127 128 123 121 119 123 135 123 141 128 104 86 107 122 80 64 63 64 66 46 66 38 35 28 44 34 19 18 18 27 39 33 30 23 25 41 48 34 19 8 3 0 3
158 154 158 155 153 142 141 138 137 137 136 129 129 134 144 152 123 125 115 95 81 79 84 70 65 75 79 58 54 62 51 34 39 41 41 29 20 10 23 39 38 17 39 34 47 56 42 26 9 1 357 359
160 167 169 160 159 152 158 151 145 149 149 146 143 147 151 144 131 132 128 123 109 104 95 84 81 91 87 80 62 61 66 37 33 58 44 29 15 8 20 18 28 22 11 46 64 61 48 27 11 1 353 357
166 170 166 166 161 156 162 152 155 157 157 151 148 153 142 142 138 138 128 134 122 131 104 106 104 103 85 79 70 69 63 49 30 45 46 30 13 12 9 15 6 17 6 1 46 64 27 19 360 350 338 343
167 168 163 163 158 163 161 154 157 156 151 149 149 142 130 127 132 130 133 130 136 127 123 119 105 103 104 93 85 73 39 56 46 51 54 35 16 5 6 9 358 19 359 1 11 48 16 4 357 342 339 333
162 169 164 167 164 167 155 158 156 152 153 157 148 148 136 127 131 144 143 139 145 127 142 127 112 105 110 102 102 86 52 21 68 78 58 27 10 5 354 5 335 38 5 0 5 23 18 358 346 340 335 326
167 166 166 166 162 163 158 157 153 155 154 157 159 160 143 132 136 133 139 135 146 140 141 134 124 120 117 101 107 107 85 324 71 115 110 86 353 358 352 343 355 48 16 0 9 6 15 346 352 341 337 333
164 170 168 164 161 165 159 157 158 159 157 163 164 159 155 151 141 138 137 136 137 138 136 136 130 132 115 127 129 127 144 251 351 110 66 38 50 32 44 12 29 23 43 2 352 7 3 351 350 336 329 334
172 169 168 162 170 169 161 163 160 161 165 162 162 160 159 160 149 145 147 147 146 140 142 143 141 133 137 143 137 152 160 96 100 74 49 20 42 17 39 29 2 11 27 21 337 8 351 355 337 322 329 323
169 172 168 167 170 167 163 169 166 169 162 160 162 162 162 163 160 152 155 150 149 142 147 147 146 148 150 153 151 145 117 84 106 99 73 49 55 13 53 24 345 27 360 342 347 5 339 350 316 317 319 316
174 171 169 169 171 171 170 172 173 170 164 162 165 161 164 166 168 158 162 162 159 158 155 156 154 152 164 159 151 144 156 121 113 116 117 107 79 27 27 17 344 26 14 11 349 326 339 321 311 318 309 310
174 173 173 171 172 168 173 172 175 174 171 168 164 165 168 169 171 164 165 166 167 162 167 164 166 163 160 162 149 152 166 129 137 127 118 133 138 90 322 35 324 5 19 343 335 317 317 299 308 299 304 302
172 168 171 171 171 173 174 177 180 177 168 166 168 170 172 174 175 171 170 171 175 165 170 168 166 169 164 164 157 163 170 151 159 138 149 122 119 137 190 66 307 336 354 328 319 320 310 297 295 296 279 284
175 174 172 172 170 175 181 185 182 176 170 173 173 172 176 176 176 173 176 174 176 171 174 169 164 168 168 165 162 164 166 164 156 147 144 178 195 139 138 214 202 262 287 323 315 312 302 294 289 271 272 266
170 171 174 170 168 181 187 189 186 177 180 176 173 180 176 175 176 178 182 180 174 174 175 164 167 167 173 167 168 166 172 166 162 158 159 164 206 184 178 188 205 207 197 235 305 293 287 285 278 266 260 257
171 171 177 179 176 187 198 189 186 190 185 176 181 182 176 177 177 181 182 183 179 178 173 167 173 171 172 173 170 176 177 182 177 175 171 182 180 200 210 207 213 178 161 340 287 279 284 276 274 274 250 248
179 179 181 187 193 195 188 190 189 189 190 187 186 179 179 178 182 182 181 185 181 180 177 175 170 170 177 178 180 186 192 185 182 179 177 180 184 183 191 227 195 188 134 112 322 313 302 304 270 268 269 244
191 192 190 187 195 189 184 187 191 195 193 193 186 180 182 185 185 183 183 186 185 183 179 174 176 179 182 181 189 193 189 184 183 178 177 174 189 194 185 203 180 188 115 23 154 18 331 325 322 322 8 339
200 199 196 191 189 183 186 205 200 197 194 188 189 187 188 188 186 184 187 185 185 184 185 183 179 185 182 187 184 184 188 184 182 182 183 184 182 183 197 197 195 189 171 170 148 148 88 323 23 323 3 358
203 199 196 196 172 185 183 189 194 199 192 196 192 199 193 193 190 187 186 186 188 190 188 184 187 183 185 189 188 187 185 185 186 183 188 190 195 177 172 188 214 193 183 145 144 49 160 224 107 335 331 2
192 180 176 177 148 150 183 194 192 197 212 203 201 197 197 202 189 188 188 188 190 190 190 188 188 186 188 187 190 188 190 190 191 190 190 188 189 191 175 179 181 205 187 184 199 146 107 38 58 214 227 78
185 189 186 175 181 188 197 206 197 204 206 199 200 206 199 187 193 190 191 190 192 194 190 192 190 188 186 189 189 191 193 192 187 194 190 197 193 196 206 172 161 184 213 194 199 205 180 161 176 175 218 95
191 195 195 196 198 201 201 207 215 215 211 203 208 201 192 198 193 195 191 194 193 194 196 192 192 192 191 190 191 191 188 193 196 193 194 191 194 202 190 176 177 181 186 169 243 211 219 157 124 135 130 206